Home   Weather   Leiden   Past weeks

Flag for Netherlands Past Weather in Leiden, Netherlands — Yesterday and Last 2 Weeks

Now
63 °F

Partly sunny.


Feels Like: 63 °F
Forecast: 60 / 68 °F
Wind: 13 mph from Southwest

Location: Rotterdam Zestienhoven Airport

Current Time: Jul 23, 2017 at 11:07:08 am

Latest Report: Jul 23, 2017 at 9:55 am


Visibility: N/A

Pressure: 29.86 "Hg

Humidity: 77%

Dew Point: 55 °F

Location of LeidenLocation

Past Weather in Leiden — Graph

°F

Leiden Temperature Yesterday

Maximum temperature yesterday: 75 °F (at 12:25 pm)
Minimum temperature yesterday: 59 °F (at 5:25 am)
Average temperature yesterday: 67 °F

High & Low Weather Summary for the Past Weeks

 TemperatureHumidityPressure
High84 °F (Jul 19, 2:55 pm)100% (Jul 9, 12:25 am)30.21 "Hg (Jul 9, 12:25 am)
Low48 °F (Jul 13, 4:25 am)42% (Jul 10, 1:25 pm)29.68 "Hg (Jul 12, 7:25 am)
Average65 °F76%29.97 "Hg
* Reported Jul 8 8:25 am — Jul 23 8:55 am, Leiden. Weather by CustomWeather, © 2017

Note: Actual official high and low records may vary slightly from our data, if they occured in-between our weather recording intervals... More about our weather records

Advertising

Leiden Weather History for the Previous 24 Hours

Scroll right to see more
 ConditionsComfort  
Time TempWeatherWind HumidityBarometerVisibility
8:55 am
Sun, Jul 23
61 °FClear.12 mph83%29.86 "HgN/A
8:25 am61 °FClear.10 mph83%29.86 "HgN/A
7:25 am59 °FClear.9 mph88%29.86 "HgN/A
6:55 am59 °FCool.10 mph88%29.86 "HgN/A
5:55 am59 °FCool.7 mph88%29.86 "HgN/A
5:25 am57 °FCool.6 mph88%29.86 "HgN/A
4:25 am57 °FPassing clouds.5 mph94%29.83 "HgN/A
3:25 am59 °FPassing clouds.2 mph100%29.86 "HgN/A
2:55 am59 °FClear.2 mph100%29.83 "Hg4 mi
2:25 am59 °FClear.5 mph100%29.83 "Hg4 mi
1:55 am61 °FClear.1 mph94%29.83 "HgN/A
1:25 am61 °FPassing clouds.2 mph94%29.86 "HgN/A
12:55 am61 °FPassing clouds.3 mph100%29.86 "HgN/A
12:25 am61 °FPassing clouds.1 mph100%29.86 "HgN/A
11:55 pm
Sat, Jul 22
63 °FLight rain. Partly cloudy.5 mph88%29.86 "HgN/A
11:25 pm63 °FPassing clouds.1 mph94%29.86 "HgN/A
10:55 pm63 °FClear.3 mph94%29.86 "HgN/A
10:25 pm63 °FSprinkles. Passing clouds.2 mph100%29.86 "HgN/A
9:55 pm64 °FLight rain. Passing clouds.1 mph88%29.86 "HgN/A
9:25 pm64 °FPassing clouds.3 mph88%29.83 "HgN/A
8:55 pm68 °FPassing clouds.8 mph78%29.83 "HgN/A
8:25 pm70 °FScattered clouds.12 mph64%29.83 "HgN/A
7:55 pm72 °FPassing clouds.14 mph61%29.83 "HgN/A
7:25 pm72 °FPassing clouds.13 mph61%29.83 "HgN/A
6:55 pm72 °FPassing clouds.14 mph69%29.83 "HgN/A
6:25 pm72 °FPassing clouds.10 mph69%29.83 "HgN/A
5:55 pm70 °FClear.10 mph73%29.83 "HgN/A
5:25 pm70 °FClear.12 mph73%29.83 "HgN/A
4:55 pm70 °FPassing clouds.9 mph78%29.83 "HgN/A
4:25 pm66 °FLight rain. Scattered clouds.10 mph88%29.86 "HgN/A
3:55 pm64 °FDrizzle. Partly sunny.14 mph88%29.86 "HgN/A
3:25 pm64 °FLight rain. Partly sunny.15 mph88%29.86 "Hg4 mi
2:55 pm72 °FMostly cloudy.9 mph57%29.86 "HgN/A
2:25 pm73 °FPassing clouds.13 mph57%29.83 "HgN/A
1:55 pm73 °FMostly cloudy.12 mph57%29.86 "HgN/A
1:25 pm75 °FClear.10 mph54%29.83 "HgN/A
12:55 pm73 °FOvercast.13 mph53%29.83 "HgN/A
12:25 pm75 °FPassing clouds.15 mph47%29.83 "HgN/A
11:55 am73 °FClear.16 mph53%29.83 "HgN/A
11:25 am73 °FMild.13 mph53%29.83 "HgN/A
Weather by CustomWeather, © 2017

See weather overviewHow to use our weather pages